{"data":{"norad_id":68750,"epoch":"2026-09-20T01:27:25.403616Z","epoch_age_seconds":78170,"freshness":"FRESH","line1":"1 68750U 26082Y   26263.06071069  .00009857  00000+0  30723-3 0  9998","line2":"2 68750  97.2861 124.2308 0002211  94.6997 265.4498 15.33445075 24170","mean_motion":15.33445075,"eccentricity":0.0002211,"inclination_deg":97.2861,"raan_deg":124.2308,"arg_perigee_deg":94.6997,"mean_anomaly_deg":265.4498,"bstar":0.00030723,"rev_number":2417,"period_min":93.906200063931,"perigee_km":464.02981369367,"apogee_km":467.05608896815,"semimajor_km":6843.6799513309,"source":"CELESTRAK","updated_at":"2026-09-20T09:00:43.995780Z"}}